Location: Daouli
(14.8671°N, 3.2030°W)
Time: 23:51:17
(UTC+00:00)

Cosmos 2058 - Pass Details

Date: 29 October 2020
Orbit: 562 x 583 km, 82.5° (Epoch: 03 December)

Event Time Altitude Azimuth Distance (km) Brightness Sun altitude
Rises 19:14:14 0° 349° (NNW) 2,746 6.4 -21.9°
Reaches altitude 10° 19:16:26 10° 344° (NNW) 1,852 5.6 -22.5°
Maximum altitude 19:20:25 55° 267° (W) 684 3.5 -23.4°
Drops below altitude 10° 19:24:25 10° 189° (S) 1,860 5.7 -24.4°
Sets 19:26:38 0° 185° (S) 2,759 6.6 -24.9°
